Regional Weather Roundup
Issued by NWS

Home | Current Version | Previous Version | Graphics & Text | Print | Product List | Glossary On
Versions: 1 2 3 4 5 6 7 8 9 10 11 12 13 14 15 16 17 18 19 20 21 22 23 24 25 26 27 28 29 30 31 32 33 34 35 36 37 38 39 40 41 42 43 44 45 46 47 48 49 50
000
ASUS43 KLMK 261210
RWRKY
KENTUCKY REGIONAL WEATHER ROUNDUP
NATIONAL WEATHER SERVICE LOUISVILLE KY
700 AM EST MON JAN 26 2015

NOTE "FAIR" INDICATES FEW OR NO CLOUDS BELOW 12,000 FEET
WITH NO SIGNIFICANT WEATHER AND/OR OBSTRUCTIONS TO VISIBILITY.

KYZ001>023-026-027-061>063-070>075-261300-
WESTERN AND SOUTH CENTRAL KENTUCKY

CITY           SKY/WX    TMP DP  RH WIND       PRES   REMARKS
PADUCAH        CLOUDY    30  24  78 NW7       30.01R WCI  23
HENDERSON      CLOUDY    30  25  80 NW15G22   29.99R WCI  19
OWENSBORO      CLOUDY    30  25  82 N10       29.97R WCI  21
HOPKINSVILLE   CLOUDY    32  29  86 NW13G21   29.96R WCI  23
BOWLING GREEN  CLOUDY    31  25  78 NW12G20   29.92R WCI  22
GLASGOW        CLOUDY    30  27  88 NW13G22   29.88R WCI  20
$$

KYZ024-025-028>034-038-045-046-053-261300-
NORTH CENTRAL KENTUCKY

CITY           SKY/WX    TMP DP  RH WIND       PRES   REMARKS
LOUISVILLE/SDF CLOUDY    26  19  74 N16       29.90R WCI  14
LOUISVILLE/LOU CLOUDY    25  18  74 N9G25     29.90R WCI  15
FORT KNOX      CLOUDY    26  22  85 NW13      29.88R WCI  15
$$

KYZ035>037-039>044-047>052-055>060-089>105-261300-
NORTHEAST KENTUCKY

CITY           SKY/WX    TMP DP  RH WIND       PRES   REMARKS
LEXINGTON      CLOUDY    24  22  91 NW14G23   29.80R WCI  12
COVINGTON      CLOUDY    21  16  81 NW17      29.83R WCI   7
FRANKFORT      CLOUDY    25  20  81 NW13      29.82R WCI  14
$$

KYZ054-064>069-076>088-106>120-261300-
SOUTHEAST KENTUCKY

CITY           SKY/WX    TMP DP  RH WIND       PRES   REMARKS
JACKSON        LGT RAIN  35  34  96 W9G18     29.68R VSB 1/4 WCI  28
LONDON         CLOUDY    34  28  79 NW10      29.74R WCI  26
SOMERSET       CLOUDY    30  28  93 NW15      29.82R WCI  19
MIDDLESBORO    DRIZZLE   38  36  91 CALM      29.71R
MONTICELLO     CLOUDY    32  31  96 NW18      29.83R FOG     WCI  20
$$




USA.gov is the U.S. government's official web portal to all federal, state and local government web resources and services.